Weather History for Houma, LA

Change the Weather History Date:

Sunday, August 10, 2014

  Actual Average Record
Temperature  
Mean Temperature 81 °F -  
Max Temperature 89 °F 89 °F 98 °F (1962)
Min Temperature 73 °F 71 °F 59 °F (1989)
Cooling Degree Days 16    
Growing Degree Days 31 (Base 50)    
Moisture  
Dew Point 72 °F    
Average Humidity 80    
Maximum Humidity 94    
Minimum Humidity 52    
Precipitation  
Precipitation 0.08 in - - ()
Sea Level Pressure  
Sea Level Pressure 30.02 in    
Wind  
Wind Speed 1 mph (NNW)    
Max Wind Speed 9 mph    
Max Gust Speed 21 mph    
Visibility 7 miles    
Events Rain , Thunderstorm    
Averages and records for this station are not official NWS values.
T = Trace of Precipitation, MM = Missing Value Source: NWS Daily Summary

Daily Weather History Graph

Daily Weather History Graph

Search for Another Location

Airport:

Trip Planner

Search our weather history database for the weather conditions in past years. The results will help you decide how hot, cold, wet, or windy it might be!

Date:

Astronomy

Aug. 10, 2014 Rise Set
Actual Time 6:27 AM CDT 7:47 PM CDT
Civil Twilight 6:02 AM CDT 8:13 PM CDT
Nautical Twilight 5:32 AM CDT 8:43 PM CDT
Astronomical Twilight 5:01 AM CDT 9:14 PM CDT
Moon 7:41 PM CDT (8/10) 6:16 AM CDT (8/10)
Length of Visible Light 14h 10m
Length of Day
13h 20m
Full, 100% of the Moon is Illuminated
Aug 10
Full
Aug 10
Full
Aug 17
Last Quarter
Aug 25
New
Sep 2
First Quarter

Hourly Weather History & Observations

Time (CDT) Temp. Heat Index Dew Point Humidity Pressure Visibility Wind Dir Wind Speed Gust Speed Precip Events Conditions
12:15 AM 76.6 °F - 71.8 °F 85% 30.03 in 7.0 mi Calm Calm - N/A   Clear
12:35 AM 76.1 °F - 71.8 °F 86% 30.03 in 7.0 mi Calm Calm - N/A   Clear
12:55 AM 75.7 °F - 72.0 °F 88% 30.03 in 7.0 mi Calm Calm - N/A   Clear
1:15 AM 75.7 °F - 72.1 °F 89% 30.02 in 7.0 mi Calm Calm - N/A   Clear
1:35 AM 75.6 °F - 72.1 °F 89% 30.02 in 7.0 mi Calm Calm - N/A   Clear
1:55 AM 75.6 °F - 72.0 °F 89% 30.01 in 7.0 mi Calm Calm - N/A   Clear
2:15 AM 75.2 °F - 71.4 °F 88% 30.00 in 7.0 mi Calm Calm - N/A   Clear
2:35 AM 74.8 °F - 71.2 °F 88% 29.99 in 5.0 mi Calm Calm - N/A   Clear
2:55 AM 74.8 °F - 71.6 °F 90% 29.99 in 5.0 mi Calm Calm - N/A   Clear
3:15 AM 75.0 °F - 71.6 °F 89% 29.98 in 7.0 mi Calm Calm - N/A   Clear
3:35 AM 74.7 °F - 71.6 °F 90% 29.98 in 5.0 mi Calm Calm - N/A   Clear
3:55 AM 74.8 °F - 71.4 °F 89% 29.98 in 7.0 mi Calm Calm - N/A   Clear
4:15 AM 74.3 °F - 70.9 °F 89% 29.97 in 7.0 mi Calm Calm - N/A   Clear
4:35 AM 74.3 °F - 70.9 °F 89% 29.97 in 7.0 mi Calm Calm - N/A   Clear
4:55 AM 74.3 °F - 70.9 °F 89% 29.98 in 5.0 mi Calm Calm - N/A   Clear
5:15 AM 74.3 °F - 71.1 °F 90% 29.98 in 5.0 mi Calm Calm - N/A   Clear
5:35 AM 73.9 °F - 70.5 °F 89% 29.99 in 5.0 mi Calm Calm - N/A   Clear
5:50 AM 73.4 °F - 71.6 °F 94% 29.99 in 7.0 mi Calm Calm - N/A   Partly Cloudy
5:55 AM 73.9 °F - 70.7 °F 90% 30.00 in 3.0 mi Calm Calm - N/A   Clear
6:47 AM 75.2 °F - 73.4 °F 94% 30.02 in 7.0 mi Calm Calm - N/A   Partly Cloudy
7:47 AM 82.4 °F 89.5 °F 75.2 °F 79% 30.04 in 7.0 mi Calm Calm - N/A   Scattered Clouds
8:47 AM 86.0 °F 95.1 °F 75.2 °F 70% 30.06 in 7.0 mi Calm Calm - N/A   Partly Cloudy
9:47 AM 87.8 °F 95.6 °F 73.4 °F 62% 30.06 in 7.0 mi WSW 3.5 mph - N/A   Scattered Clouds
10:47 AM 89.6 °F 98.2 °F 73.4 °F 59% 30.06 in 7.0 mi Calm Calm - N/A   Scattered Clouds
11:50 AM 75.2 °F - 71.6 °F 89% 30.11 in 3.0 mi NNW 9.2 mph 20.7 mph N/A Rain , Thunderstorm Thunderstorms and Rain
12:33 PM 73.4 °F - 71.6 °F 94% 30.08 in 4.0 mi East 9.2 mph - N/A Rain Light Rain
12:50 PM 75.2 °F - 71.6 °F 89% 30.07 in 7.0 mi Calm Calm - N/A   Mostly Cloudy
1:50 PM 78.8 °F - 75.2 °F 89% 30.07 in 7.0 mi Calm Calm - N/A   Scattered Clouds
2:50 PM 80.6 °F 86.2 °F 75.2 °F 84% 30.05 in 7.0 mi SSW 6.9 mph - N/A   Scattered Clouds
3:50 PM 87.8 °F 92.6 °F 69.8 °F 55% 30.02 in 7.0 mi SSW 3.5 mph - N/A   Scattered Clouds
4:50 PM 89.6 °F 94.7 °F 69.8 °F 52% 30.01 in 7.0 mi West 3.5 mph - N/A   Scattered Clouds
5:50 PM 89.6 °F 96.2 °F 71.6 °F 55% 29.98 in 7.0 mi West 3.5 mph - N/A   Scattered Clouds
6:50 PM 87.8 °F 93.8 °F 71.6 °F 58% 29.98 in 7.0 mi West 3.5 mph - N/A   Scattered Clouds
7:15 PM 86.5 °F 91.4 °F 70.3 °F 58% 30.00 in 10.0 mi NNW 8.1 mph - 0.03 in   Scattered Clouds
7:35 PM 84.7 °F 89.7 °F 70.7 °F 63% 30.00 in 7.0 mi NNW 4.6 mph - 0.05 in   Clear
7:55 PM 82.4 °F 86.3 °F 70.2 °F 66% 30.00 in 7.0 mi NNW 3.5 mph - 0.07 in   Clear
8:15 PM 81.1 °F 84.9 °F 70.7 °F 70% 30.01 in 10.0 mi North 3.5 mph - N/A   Clear
8:35 PM 80.2 °F 83.7 °F 71.1 °F 73% 30.01 in 10.0 mi NNE 3.5 mph - 0.01 in   Clear
8:55 PM 79.7 °F - 71.6 °F 76% 30.01 in 10.0 mi Calm Calm - 0.01 in   Clear
9:15 PM 79.2 °F - 71.6 °F 78% 30.01 in 10.0 mi NE 4.6 mph - N/A   Clear
9:35 PM 78.8 °F - 71.6 °F 78% 30.02 in 10.0 mi NNE 3.5 mph - N/A   Clear
9:55 PM 78.8 °F - 71.6 °F 78% 30.03 in 10.0 mi NE 3.5 mph - N/A   Clear
10:15 PM 78.1 °F - 71.8 °F 81% 30.03 in 10.0 mi Calm Calm - N/A   Clear
10:55 PM 77.2 °F - 72.0 °F 84% 30.03 in 10.0 mi ENE 3.5 mph - N/A   Clear
11:15 PM 77.0 °F - 71.8 °F 84% 30.04 in 7.0 mi Calm Calm - N/A   Clear
11:35 PM 77.0 °F - 71.6 °F 83% 30.04 in 10.0 mi Calm Calm - N/A   Clear
11:55 PM 75.6 °F - 71.1 °F 86% 30.03 in 7.0 mi Calm Calm - N/A   Clear